Garden City, KS

4:47 PM CST on February 22, 2018 (GMT -0600)
Garden City Regional

Weather History for KGCK - September, 2013

Change the Weather History Date:

Tuesday, September 24, 2013

  Actual Average Record
Temperature  
Mean Temperature 65 °F 64 °F  
Max Temperature 81 °F 79 °F 96 °F (1966)
Min Temperature 49 °F 51 °F 33 °F (1989)
Degree Days  
Heating Degree Days 0 4  
Month to date heating degree days 6 40  
Since 1 July heating degree days 6 44  
Cooling Degree Days 0 3  
Month to date cooling degree days 205 147  
Year to date cooling degree days 1547 1263  
Growing Degree Days 14 (Base 50)    
Moisture  
Dew Point 40 °F    
Average Humidity 52    
Maximum Humidity 86    
Minimum Humidity 18    
Precipitation  
Precipitation 0.00 in 0.04 in 1.22 in (2017)
Month to date precipitation 1.22 1.21  
Year to date precipitation 11.39 16.86  
Sea Level Pressure  
Sea Level Pressure 29.95 in    
Wind  
Wind Speed 10 mph (NNW)    
Max Wind Speed 20 mph    
Max Gust Speed 26 mph    
Visibility 10 miles    
Events      
T = Trace of Precipitation, MM = Missing Value Source: NWS Daily Summary

Daily Weather History Graph

Daily Weather History Graph

Search for Another Location

Airport or City:

Trip Planner

Search our weather history database for the weather conditions in past years. The results will help you decide how hot, cold, wet, or windy it might be!

Date:

Astronomy

Sep. 24, 2013 Rise Set
Actual Time 7:32 AM CDT 7:36 PM CDT
Civil Twilight 7:06 AM CDT 8:02 PM CDT
Nautical Twilight 6:35 AM CDT 8:33 PM CDT
Astronomical Twilight 6:04 AM CDT 9:03 PM CDT
Moon 11:00 PM CDT (9/24) 12:43 PM CDT (9/24)
Length of Visible Light 12h 56m
Length of Day
12h 03m
Waning Gibbous, 73% of the Moon is Illuminated
Sep 24
Waning Gibbous
Sep 26
Last Quarter
Oct 4
New
Oct 11
First Quarter
Oct 18
Full

Hourly Weather History & Observations

Time (CDT) Temp. Dew Point Humidity Pressure Visibility Wind Dir Wind Speed Gust Speed Precip Events Conditions
12:54 AM 59.0 °F 46.0 °F 62% 29.88 in 10.0 mi NW 11.5 mph - N/A   Clear
1:54 AM 57.9 °F 45.0 °F 62% 29.90 in 10.0 mi NW 12.7 mph - N/A   Clear
2:54 AM 57.0 °F 45.0 °F 64% 29.93 in 10.0 mi NNW 15.0 mph 24.2 mph N/A   Clear
3:54 AM 55.0 °F 46.0 °F 72% 29.94 in 10.0 mi WNW 9.2 mph - N/A   Clear
4:54 AM 54.0 °F 46.0 °F 75% 29.96 in 10.0 mi WNW 9.2 mph - N/A   Clear
5:54 AM 48.9 °F 45.0 °F 86% 29.98 in 10.0 mi WNW 8.1 mph - N/A   Clear
6:54 AM 50.0 °F 46.0 °F 86% 29.99 in 10.0 mi WNW 8.1 mph - N/A   Clear
7:54 AM 51.1 °F 46.0 °F 83% 30.01 in 10.0 mi WNW 9.2 mph - N/A   Clear
8:54 AM 55.9 °F 46.9 °F 72% 30.01 in 10.0 mi NW 9.2 mph - N/A   Clear
9:54 AM 64.0 °F 46.0 °F 52% 30.02 in 10.0 mi NW 11.5 mph - N/A   Clear
10:54 AM 71.1 °F 39.9 °F 32% 30.02 in 10.0 mi NW 15.0 mph - N/A   Clear
11:54 AM 75.0 °F 37.0 °F 25% 30.01 in 10.0 mi NW 17.3 mph 23.0 mph N/A   Clear
12:54 PM 77.0 °F 34.0 °F 21% 30.00 in 10.0 mi NNW 16.1 mph 21.9 mph N/A   Clear
1:54 PM 79.0 °F 33.1 °F 19% 29.98 in 10.0 mi NW 16.1 mph 21.9 mph N/A   Clear
2:54 PM 80.1 °F 33.1 °F 18% 29.95 in 10.0 mi NNW 16.1 mph 20.7 mph N/A   Clear
3:54 PM 80.1 °F 33.1 °F 18% 29.94 in 10.0 mi NNW 12.7 mph 17.3 mph N/A   Clear
4:54 PM 80.1 °F 33.1 °F 18% 29.92 in 9.0 mi West 6.9 mph - N/A   Clear
5:54 PM 79.0 °F 33.1 °F 19% 29.93 in 10.0 mi NNW 6.9 mph - N/A   Clear
6:54 PM 77.0 °F 35.1 °F 22% 29.91 in 10.0 mi NNE 5.8 mph - N/A   Clear
7:54 PM 68.0 °F 37.0 °F 32% 29.93 in 10.0 mi ENE 6.9 mph - N/A   Clear
8:54 PM 64.0 °F 37.0 °F 37% 29.93 in 10.0 mi East 8.1 mph - N/A   Clear
9:54 PM 63.0 °F 37.0 °F 38% 29.92 in 10.0 mi East 9.2 mph - N/A   Clear
10:54 PM 57.9 °F 37.9 °F 47% 29.91 in 10.0 mi ESE 6.9 mph - N/A   Clear
11:54 PM 55.0 °F 39.0 °F 55% 29.90 in 10.0 mi SE 6.9 mph - N/A   Clear